When you browse on this site, cookies collect data to enhance your experience and personalize the content and advertising you see.
Visit our Privacy Policy to learn more. By continuing to use the site, you agree to this use of cookies and data.

Hourly Weather Uzranki

Today, 7 August, Friday

Time Temperature Precipitation Wind Pressure Humidity
00:00 +16°C° 0 mm 2 mps 753 mmHg 79%
01:00 +16°C° 0 mm 2 mps 753 mmHg 80%
02:00 +15°C° 0 mm 2 mps 753 mmHg 81%
03:00 +15°C° 0 mm 2 mps 753 mmHg 82%
04:00 +15°C° 0 mm 2 mps 753 mmHg 83%
05:00 +16°C° 0 mm 2 mps 753 mmHg 80%
06:00 +18°C° 0 mm 2 mps 753 mmHg 77%
07:00 +19°C° 0 mm 2 mps 754 mmHg 73%
08:00 +21°C° 0 mm 3 mps 754 mmHg 69%
09:00 +24°C° 0 mm 3 mps 754 mmHg 65%
10:00 +26°C° 0 mm 3 mps 754 mmHg 61%
11:00 +27°C° 0 mm 3 mps 753 mmHg 59%
12:00 +28°C° 0 mm 3 mps 753 mmHg 58%
13:00 +28°C° 0 mm 3 mps 753 mmHg 56%
14:00 +28°C° 0 mm 3 mps 753 mmHg 58%
15:00 +28°C° 0 mm 3 mps 753 mmHg 60%
16:00 +28°C° 0 mm 3 mps 752 mmHg 61%
17:00 +26°C° 0.3 mm 3 mps 752 mmHg 68%
18:00 +25°C° 0.3 mm 2 mps 752 mmHg 75%
19:00 +23°C° 0.3 mm 2 mps 752 mmHg 81%
20:00 +21°C° 0 mm 2 mps 752 mmHg 83%
21:00 +20°C° 0 mm 2 mps 752 mmHg 85%
22:00 +19°C° 0 mm 2 mps 752 mmHg 86%
23:00 +19°C° 0 mm 2 mps 752 mmHg 87%

Tomorrow, 8 August, Saturday

Time Temperature Precipitation Wind Pressure Humidity
00:00 +18°C° 0 mm 2 mps 752 mmHg 88%
01:00 +18°C° 0 mm 2 mps 752 mmHg 88%
02:00 +18°C° 0 mm 2 mps 752 mmHg 90%
03:00 +17°C° 0 mm 2 mps 752 mmHg 91%
04:00 +17°C° 0 mm 2 mps 752 mmHg 92%
05:00 +18°C° 0 mm 2 mps 752 mmHg 88%
06:00 +20°C° 0 mm 2 mps 752 mmHg 84%
07:00 +21°C° 0 mm 2 mps 752 mmHg 80%
08:00 +24°C° 0 mm 2 mps 752 mmHg 74%
09:00 +25°C° 0 mm 2 mps 752 mmHg 68%
10:00 +27°C° 0 mm 2 mps 752 mmHg 61%
11:00 +27°C° 0 mm 2 mps 752 mmHg 58%
12:00 +28°C° 0 mm 2 mps 751 mmHg 55%
13:00 +29°C° 0 mm 2 mps 751 mmHg 52%
14:00 +29°C° 0 mm 2 mps 751 mmHg 53%
15:00 +29°C° 0 mm 2 mps 750 mmHg 54%
16:00 +29°C° 0 mm 2 mps 750 mmHg 54%
17:00 +27°C° 0 mm 1 mps 750 mmHg 62%
18:00 +25°C° 0 mm 1 mps 750 mmHg 69%
19:00 +24°C° 0 mm 1 mps 750 mmHg 76%
20:00 +23°C° 0 mm 1 mps 750 mmHg 78%
21:00 +22°C° 0 mm 1 mps 750 mmHg 81%
22:00 +21°C° 0 mm 1 mps 750 mmHg 83%
23:00 +21°C° 0 mm 1 mps 750 mmHg 85%

Day after tomorrow, 9 August, Sunday

Time Temperature Precipitation Wind Pressure Humidity
00:00 +20°C° 0 mm 1 mps 750 mmHg 87%
01:00 +20°C° 0 mm 1 mps 749 mmHg 89%
02:00 +20°C° 0 mm 1 mps 749 mmHg 89%
03:00 +20°C° 0 mm 1 mps 749 mmHg 90%
04:00 +19°C° 0 mm 1 mps 749 mmHg 91%
05:00 +21°C° 0 mm 1 mps 749 mmHg 85%
06:00 +22°C° 0 mm 1 mps 749 mmHg 80%
07:00 +24°C° 0 mm 1 mps 749 mmHg 75%
08:00 +25°C° 0.3 mm 1 mps 749 mmHg 71%
09:00 +26°C° 0.3 mm 1 mps 749 mmHg 67%
10:00 +27°C° 0.3 mm 1 mps 749 mmHg 64%
11:00 +28°C° 1.3 mm 1 mps 749 mmHg 63%
12:00 +28°C° 1.3 mm 1 mps 749 mmHg 62%
13:00 +28°C° 1.3 mm 1 mps 748 mmHg 61%
14:00 +28°C° 1.1 mm 1 mps 748 mmHg 62%
15:00 +28°C° 1.1 mm 1 mps 748 mmHg 63%
16:00 +28°C° 1.1 mm 1 mps 748 mmHg 65%
17:00 +26°C° 0.6 mm 1 mps 748 mmHg 70%
18:00 +25°C° 0.6 mm 1 mps 748 mmHg 76%
19:00 +23°C° 0.6 mm 1 mps 747 mmHg 81%
20:00 +23°C° 0 mm 1 mps 748 mmHg 84%
21:00 +22°C° 0 mm 1 mps 748 mmHg 87%
22:00 +21°C° 0 mm 1 mps 748 mmHg 91%
23:00 +21°C° 0 mm 1 mps 748 mmHg 91%

10 August, Monday

Time Temperature Precipitation Wind Pressure Humidity
00:00 +20°C° 0 mm 1 mps 747 mmHg 92%
01:00 +20°C° 0 mm 1 mps 747 mmHg 93%
02:00 +20°C° 0 mm 1 mps 747 mmHg 93%
03:00 +19°C° 0 mm 1 mps 747 mmHg 93%
04:00 +19°C° 0 mm 1 mps 747 mmHg 94%
05:00 +20°C° 0 mm 1 mps 747 mmHg 90%
06:00 +22°C° 0 mm 1 mps 747 mmHg 86%
07:00 +23°C° 0 mm 1 mps 748 mmHg 82%
08:00 +24°C° 0.3 mm 1 mps 748 mmHg 78%
09:00 +25°C° 0.3 mm 1 mps 748 mmHg 73%
10:00 +26°C° 0.3 mm 2 mps 748 mmHg 68%
11:00 +27°C° 0.4 mm 2 mps 748 mmHg 66%
12:00 +27°C° 0.4 mm 2 mps 747 mmHg 64%
13:00 +28°C° 0.4 mm 2 mps 747 mmHg 61%
14:00 +27°C° 0.4 mm 2 mps 747 mmHg 64%
15:00 +27°C° 0.4 mm 2 mps 747 mmHg 66%
16:00 +27°C° 0.4 mm 2 mps 747 mmHg 68%
17:00 +25°C° 0.5 mm 2 mps 747 mmHg 75%
18:00 +24°C° 0.5 mm 3 mps 747 mmHg 82%
19:00 +21°C° 0.5 mm 3 mps 747 mmHg 89%
20:00 +20°C° 0 mm 3 mps 747 mmHg 91%
21:00 +19°C° 0 mm 2 mps 747 mmHg 92%
22:00 +19°C° 0 mm 2 mps 748 mmHg 94%
23:00 +18°C° 0 mm 2 mps 747 mmHg 95%

11 August, Tuesday

Time Temperature Precipitation Wind Pressure Humidity
00:00 +18°C° 0 mm 2 mps 747 mmHg 95%
01:00 +17°C° 0 mm 2 mps 747 mmHg 96%
02:00 +17°C° 0 mm 2 mps 747 mmHg 95%
03:00 +16°C° 0 mm 2 mps 747 mmHg 93%
04:00 +16°C° 0 mm 2 mps 747 mmHg 91%
05:00 +16°C° 0 mm 3 mps 748 mmHg 88%
06:00 +17°C° 0 mm 3 mps 748 mmHg 85%
07:00 +17°C° 0 mm 3 mps 748 mmHg 82%
08:00 +19°C° 0 mm 4 mps 748 mmHg 77%
09:00 +20°C° 0 mm 4 mps 748 mmHg 72%
10:00 +22°C° 0 mm 5 mps 748 mmHg 66%
11:00 +22°C° 0 mm 5 mps 748 mmHg 64%
12:00 +23°C° 0 mm 5 mps 748 mmHg 62%
13:00 +23°C° 0 mm 5 mps 748 mmHg 60%
14:00 +23°C° 0 mm 5 mps 748 mmHg 60%
15:00 +23°C° 0 mm 5 mps 748 mmHg 61%
16:00 +22°C° 0 mm 5 mps 748 mmHg 61%
17:00 +21°C° 0 mm 4 mps 748 mmHg 67%
18:00 +19°C° 0 mm 3 mps 748 mmHg 74%
19:00 +18°C° 0 mm 3 mps 748 mmHg 80%
20:00 +17°C° 0 mm 2 mps 748 mmHg 83%
21:00 +16°C° 0 mm 2 mps 748 mmHg 87%
22:00 +15°C° 0 mm 2 mps 749 mmHg 90%
23:00 +14°C° 0 mm 2 mps 749 mmHg 90%

12 August, Wednesday

Time Temperature Precipitation Wind Pressure Humidity
00:00 +14°C° 0 mm 2 mps 749 mmHg 90%
01:00 +13°C° 0 mm 2 mps 749 mmHg 90%
02:00 +13°C° 0 mm 2 mps 749 mmHg 92%
03:00 +12°C° 0 mm 2 mps 749 mmHg 93%
04:00 +10°C° 0 mm 2 mps 749 mmHg 94%
05:00 +13°C° 0 mm 2 mps 749 mmHg 91%
06:00 +14°C° 0 mm 2 mps 749 mmHg 87%
07:00 +16°C° 0 mm 2 mps 749 mmHg 83%
08:00 +17°C° 0 mm 3 mps 749 mmHg 77%
09:00 +19°C° 0 mm 3 mps 750 mmHg 70%
10:00 +20°C° 0 mm 3 mps 750 mmHg 64%
11:00 +21°C° 0 mm 3 mps 749 mmHg 62%
12:00 +21°C° 0 mm 4 mps 749 mmHg 61%
13:00 +21°C° 0 mm 4 mps 749 mmHg 59%
14:00 +21°C° 0 mm 4 mps 749 mmHg 60%
15:00 +21°C° 0 mm 4 mps 749 mmHg 61%
16:00 +21°C° 0 mm 4 mps 749 mmHg 61%
17:00 +19°C° 0 mm 3 mps 749 mmHg 67%
18:00 +18°C° 0 mm 3 mps 749 mmHg 73%
19:00 +16°C° 0 mm 2 mps 749 mmHg 79%
20:00 +15°C° 0 mm 2 mps 749 mmHg 82%
21:00 +14°C° 0 mm 2 mps 749 mmHg 85%
22:00 +13°C° 0 mm 2 mps 749 mmHg 89%
23:00 +13°C° 0 mm 2 mps 749 mmHg 90%
Show more